Flag for Finland Weather past 2 weeks in Rovaniemi, Finland

Now
14 °F

Snow. Mostly cloudy.


Feels Like: 0 °F
Forecast: 22 / 26 °F
Wind: 13 mph from Northeast

Location: Rovaniemi Airport

Current Time: Jan 30, 2015 at 6:37:10 PM

Latest Report: Jan 30, 2015 at 6:20 PM


Visibility: 1 mi

Pressure: 29.21 "Hg

Humidity: 100%

Dew point: 14 °F

Location of RovaniemiLocation

Historic Weather in Rovaniemi — Graph

°F

Rovaniemi temperature yesterday

Maximum temperature yesterday: 28 °F (at 12:20 AM)
Minimum temperature yesterday: 14 °F (at 8:50 PM)
Average temperature yesterday: 20 °F

Past Weeks' High & Low Weather Summary

 TemperatureHumidityPressure
High30 °F (Jan 16, 8:50 PM)100% (Jan 15, 6:50 PM)30.48 "Hg (Jan 15, 6:50 PM)
Low-8 °F (Jan 20, 11:20 PM)84% (Jan 19, 6:20 PM)28.88 "Hg (Jan 17, 4:20 AM)
Average14 °F95%29.69 "Hg
* Reported Jan 15 5:20 PM — Jan 30 5:20 PM, Rovaniemi, Weather by CustomWeather, © 2014

Note: Actual official high and low records may vary slightly from our data, if they occured in-between our weather recording intervals... More about our weather records

Advertising

Rovaniemi weather history for previous 24 hours

 ConditionsComfort  
Time TempWeatherWind HumidityBarometerVisibility
5:20 PM
Jan 30
14 °FLight snow. Passing clouds.13 mph100%29.21 "Hg2 mi
4:50 PM14 °FLight snow. Mostly cloudy.13 mph100%29.21 "Hg1 mi
4:20 PM14 °FLight snow. Mostly cloudy.13 mph100%29.21 "Hg2 mi
3:50 PM14 °FSnow. Overcast.15 mph100%29.18 "Hg1 mi
3:20 PM14 °FLight snow. Mostly cloudy.14 mph100%29.18 "Hg1 mi
2:50 PM14 °FLight snow. Broken clouds.14 mph100%29.21 "Hg1 mi
2:20 PM14 °FSnow. Ice fog.15 mph100%29.21 "Hg1 mi
1:50 PM14 °FLight snow. Partly sunny.16 mph100%29.21 "Hg1 mi
1:20 PM14 °FLight snow. Broken clouds.14 mph100%29.21 "Hg1 mi
12:50 PM14 °FLight snow. Broken clouds.15 mph100%29.21 "Hg1 mi
12:20 PM14 °FLight snow. Ice fog.14 mph100%29.21 "Hg1 mi
11:50 AM14 °FLight snow. Ice fog.14 mph100%29.21 "Hg1 mi
11:20 AM14 °FLight snow. Ice fog.14 mph100%29.21 "Hg1 mi
10:50 AM14 °FSnow. Broken clouds.15 mph100%29.21 "Hg1 mi
10:20 AM14 °FLight snow. Partly sunny.15 mph100%29.21 "Hg3 mi
9:50 AM14 °FLight snow. Partly sunny.16 mph100%29.21 "HgN/A
9:20 AM14 °FLight snow. Passing clouds.16 mph100%29.18 "HgN/A
8:50 AM14 °FLight snow. Passing clouds.16 mph100%29.18 "HgN/A
8:20 AM14 °FLight snow. Passing clouds.15 mph100%29.18 "Hg4 mi
7:50 AM14 °FLight snow. Passing clouds.13 mph100%29.18 "HgN/A
7:20 AM14 °FLight snow. Passing clouds.15 mph100%29.18 "Hg2 mi
6:50 AM14 °FLight snow. Mostly cloudy.15 mph100%29.18 "Hg1 mi
6:20 AM14 °FLight snow. Mostly cloudy.15 mph100%29.18 "Hg1 mi
5:20 AM14 °FLight snow. Mostly cloudy.15 mph100%29.18 "Hg2 mi
4:50 AM14 °FLight snow. Overcast.16 mph100%29.18 "Hg4 mi
4:20 AM14 °FLight snow. Overcast.16 mph100%29.18 "Hg2 mi
3:50 AM14 °FLight snow. Ice fog.16 mph100%29.18 "Hg1 mi
3:20 AM14 °FLight snow. Ice fog.15 mph100%29.18 "Hg1 mi
2:50 AM14 °FLight mixture of precip. Ice fog.16 mph100%29.18 "Hg1 mi
2:20 AM14 °FLight snow. Ice fog.17 mph92%29.18 "Hg1 mi
1:50 AM14 °FLight snow. Ice fog.17 mph100%29.18 "Hg1 mi
1:20 AM14 °FLight snow. Ice fog.18 mph100%29.18 "Hg1 mi
12:50 AM14 °FScattered showers. Ice fog.17 mph100%29.18 "Hg1 mi
12:20 AM14 °FIce fog.17 mph100%29.18 "Hg1 mi
11:50 PM
Jan 29
14 °FIce fog.16 mph100%29.18 "Hg2 mi
11:20 PM14 °FIce fog.16 mph100%29.18 "Hg2 mi
10:50 PM14 °FIce fog.16 mph100%29.18 "Hg2 mi
10:20 PM14 °FScattered showers. Ice fog.16 mph100%29.18 "Hg2 mi
9:50 PM14 °FLight mixture of precip. Mostly cloudy.15 mph100%29.18 "Hg4 mi
9:20 PM14 °FOvercast.15 mph100%29.15 "Hg1 mi
8:50 PM14 °FLight snow. Mostly cloudy.18 mph100%29.15 "Hg1 mi
8:20 PM16 °FLight snow. Ice fog.17 mph93%29.15 "Hg1 mi
7:50 PM16 °FIce fog.20 mph93%29.15 "Hg0 mi
7:20 PM16 °FSnow. Overcast.20 mph93%29.15 "Hg1 mi
6:49 PM16 °FSnow. Mostly cloudy.20 mph100%29.15 "Hg1 mi
6:20 PM16 °FSnow. Mostly cloudy.18 mph100%29.15 "Hg1 mi
Weather by CustomWeather, © 2014

See weather overviewHow to use our weather pages